| time (UTC) | temp C | wind direction | speed KPH | gust KPH | rain 1hr cm | rain 24hr cm | rain mn cm | humidity % | barometer mb |
| 20260506202457 | 13 | 229 | 3.2 | 9.7 | 0.00 | 0.08 | 0.08 | 94 | 1007.7 |
| 20260506201957 | 13 | 229 | 3.2 | 9.7 | 0.00 | 0.08 | 0.08 | 94 | 1007.8 |
| 20260506201457 | 13 | 239 | 1.6 | 8.0 | 0.00 | 0.08 | 0.08 | 94 | 1007.9 |
| 20260506200957 | 13 | 236 | 3.2 | 8.0 | 0.00 | 0.08 | 0.08 | 94 | 1007.8 |
| 20260506200458 | 13 | 240 | 4.8 | 8.0 | 0.00 | 0.08 | 0.08 | 94 | 1007.7 |
| 20260506195458 | 13 | 238 | 1.6 | 9.7 | 0.00 | 0.08 | 0.08 | 94 | 1007.8 |
| 20260506194958 | 13 | 246 | 3.2 | 8.0 | 0.00 | 0.08 | 0.08 | 94 | 1007.8 |
| 20260506194457 | 13 | 232 | 3.2 | 6.4 | 0.00 | 0.08 | 0.08 | 94 | 1007.8 |
| 20260506193457 | 13 | 224 | 3.2 | 14.5 | 0.00 | 0.08 | 0.08 | 94 | 1007.9 |
| 20260506192957 | 13 | 252 | 3.2 | 14.5 | 0.00 | 0.08 | 0.08 | 94 | 1008.1 |
| 20260506192457 | 13 | 227 | 4.8 | 11.3 | 0.00 | 0.08 | 0.08 | 94 | 1008.1 |
| 20260506191957 | 13 | 234 | 6.4 | 11.3 | 0.00 | 0.08 | 0.08 | 94 | 1008.1 |
| 20260506191457 | 13 | 227 | 3.2 | 6.4 | 0.00 | 0.08 | 0.08 | 94 | 1008.2 |
| 20260506190958 | 13 | 246 | 3.2 | 6.4 | 0.03 | 0.08 | 0.08 | 94 | 1008.3 |
| 20260506190458 | 13 | 249 | 0.0 | 6.4 | 0.03 | 0.08 | 0.08 | 94 | 1008.2 |
| 20260506185457 | 13 | 226 | 3.2 | 8.0 | 0.03 | 0.08 | 0.08 | 94 | 1008.4 |
| 20260506184957 | 13 | 234 | 4.8 | 8.0 | 0.03 | 0.08 | 0.08 | 94 | 1008.5 |
| 20260506184457 | 13 | 241 | 6.4 | 11.3 | 0.05 | 0.08 | 0.08 | 93 | 1008.5 |
| 20260506183957 | 13 | 233 | 1.6 | 12.9 | 0.05 | 0.08 | 0.08 | 93 | 1008.6 |
| 20260506183457 | 13 | 219 | 4.8 | 12.9 | 0.05 | 0.08 | 0.08 | 93 | 1008.6 |
| 20260506182957 | 13 | 250 | 6.4 | 12.9 | 0.05 | 0.08 | 0.08 | 93 | 1008.6 |
| 20260506182457 | 13 | 237 | 6.4 | 12.9 | 0.08 | 0.08 | 0.08 | 93 | 1008.8 |
| 20260506181957 | 13 | 223 | 3.2 | 12.9 | 0.08 | 0.08 | 0.08 | 93 | 1008.8 |
| 20260506181458 | 13 | 213 | 6.4 | 12.9 | 0.08 | 0.08 | 0.08 | 93 | 1008.9 |
| 20260506180957 | 13 | 227 | 4.8 | 12.9 | 0.05 | 0.05 | 0.05 | 93 | 1009.0 |
| 20260506180457 | 13 | 222 | 6.4 | 12.9 | 0.05 | 0.05 | 0.05 | 93 | 1008.8 |
| 20260506175959 | 13 | 225 | 1.6 | 12.9 | 0.05 | 0.05 | 0.05 | 93 | 1008.9 |
| 20260506174457 | 13 | 213 | 1.6 | 4.8 | 0.03 | 0.03 | 0.03 | 92 | 1008.7 |
| 20260506173956 | 13 | 159 | 1.6 | 4.8 | 0.03 | 0.03 | 0.03 | 92 | 1009.0 |
| 20260506172457 | 13 | 215 | 0.0 | 8.0 | 0.00 | 0.00 | 0.00 | 91 | 1009.3 |
| 20260506171958 | 13 | 248 | 3.2 | 8.0 | 0.00 | 0.00 | 0.00 | 91 | 1009.5 |
| 20260506171457 | 13 | 165 | 0.0 | 6.4 | 0.00 | 0.00 | 0.00 | 90 | 1009.6 |
| 20260506170457 | 14 | 245 | 4.8 | 11.3 | 0.00 | 0.00 | 0.00 | 89 | 1009.9 |
| 20260506165959 | 14 | 223 | 1.6 | 11.3 | 0.00 | 0.00 | 0.00 | 89 | 1010.1 |
| 20260506165456 | 14 | 224 | 6.4 | 8.0 | 0.00 | 0.00 | 0.00 | 89 | 1010.1 |
| 20260506164957 | 14 | 229 | 4.8 | 8.0 | 0.00 | 0.00 | 0.00 | 88 | 1010.0 |
| 20260506164457 | 14 | 236 | 3.2 | 8.0 | 0.00 | 0.00 | 0.00 | 88 | 1010.1 |
| 20260506163957 | 14 | 215 | 3.2 | 8.0 | 0.00 | 0.00 | 0.00 | 87 | 1010.1 |
| 20260506163458 | 15 | 237 | 6.4 | 8.0 | 0.00 | 0.00 | 0.00 | 86 | 1010.2 |
| 20260506162957 | 15 | 257 | 6.4 | 11.3 | 0.00 | 0.00 | 0.00 | 86 | 1010.1 |
| 20260506162457 | 15 | 250 | 1.6 | 11.3 | 0.00 | 0.00 | 0.00 | 86 | 1010.0 |
| 20260506161957 | 15 | 223 | 6.4 | 8.0 | 0.00 | 0.00 | 0.00 | 85 | 1010.1 |
| 20260506161457 | 15 | 215 | 3.2 | 8.0 | 0.00 | 0.00 | 0.00 | 85 | 1010.1 |
| 20260506160957 | 15 | 190 | 1.6 | 6.4 | 0.00 | 0.00 | 0.00 | 84 | 1010.1 |
| 20260506160457 | 16 | 224 | 3.2 | 8.0 | 0.00 | 0.00 | 0.00 | 84 | 1010.2 |
| 20260506155959 | 16 | 213 | 3.2 | 9.7 | 0.00 | 0.00 | 0.00 | 83 | 1010.2 |
| 20260506155457 | 16 | 178 | 1.6 | 12.9 | 0.00 | 0.00 | 0.00 | 83 | 1010.4 |
| 20260506154957 | 16 | 238 | 9.7 | 12.9 | 0.00 | 0.00 | 0.00 | 83 | 1010.5 |
| 20260506153958 | 16 | 228 | 3.2 | 12.9 | 0.00 | 0.00 | 0.00 | 83 | 1010.4 |
| 20260506153457 | 16 | 229 | 3.2 | 12.9 | 0.00 | 0.00 | 0.00 | 84 | 1010.5 |
| 20260506152957 | 16 | 219 | 3.2 | 12.9 | 0.00 | 0.00 | 0.00 | 84 | 1010.8 |
| 20260506152458 | 16 | 227 | 4.8 | 11.3 | 0.00 | 0.00 | 0.00 | 84 | 1010.7 |
| 20260506151957 | 16 | 234 | 3.2 | 11.3 | 0.00 | 0.00 | 0.00 | 83 | 1010.4 |
| 20260506150956 | 16 | 240 | 3.2 | 9.7 | 0.00 | 0.00 | 0.00 | 84 | 1010.3 |
| 20260506150458 | 16 | 235 | 3.2 | 8.0 | 0.00 | 0.00 | 0.00 | 84 | 1010.4 |
| 20260506145956 | 16 | 222 | 4.8 | 8.0 | 0.00 | 0.00 | 0.00 | 83 | 1010.4 |
| 20260506144956 | 16 | 232 | 6.4 | 11.3 | 0.00 | 0.00 | 0.00 | 82 | 1010.3 |
| 20260506144456 | 16 | 177 | 1.6 | 9.7 | 0.00 | 0.00 | 0.00 | 81 | 1010.3 |
| 20260506143956 | 16 | 242 | 6.4 | 11.3 | 0.00 | 0.00 | 0.00 | 82 | 1010.4 |
| 20260506143457 | 16 | 246 | 3.2 | 11.3 | 0.00 | 0.00 | 0.00 | 82 | 1010.5 |
| 20260506142455 | 17 | 263 | 11.3 | 11.3 | 0.00 | 0.00 | 0.00 | 80 | 1010.6 |
| 20260506141956 | 17 | 200 | 6.4 | 8.0 | 0.00 | 0.00 | 0.00 | 80 | 1010.5 |
| 20260506141456 | 17 | 215 | 0.0 | 8.0 | 0.00 | 0.00 | 0.00 | 80 | 1010.6 |
| 20260506140956 | 17 | 227 | 6.4 | 8.0 | 0.00 | 0.00 | 0.00 | 82 | 1010.5 |
| 20260506135959 | 17 | 234 | 4.8 | 11.3 | 0.00 | 0.00 | 0.00 | 82 | 1010.6 |
| 20260506134457 | 16 | 228 | 4.8 | 12.9 | 0.00 | 0.00 | 0.00 | 84 | 1010.7 |
| 20260506133957 | 16 | 138 | 1.6 | 16.1 | 0.00 | 0.00 | 0.00 | 84 | 1010.6 |
| 20260506133457 | 16 | 238 | 9.7 | 16.1 | 0.00 | 0.00 | 0.00 | 84 | 1010.6 |
| 20260506131457 | 15 | 238 | 6.4 | 12.9 | 0.00 | 0.00 | 0.00 | 86 | 1010.4 |
| 20260506130957 | 15 | 219 | 4.8 | 8.0 | 0.00 | 0.00 | 0.00 | 87 | 1010.4 |
| 20260506130456 | 15 | 228 | 3.2 | 12.9 | 0.00 | 0.00 | 0.00 | 86 | 1010.4 |
| 20260506125458 | 15 | 263 | 6.4 | 16.1 | 0.00 | 0.00 | 0.00 | 86 | 1010.5 |
| 20260506124957 | 15 | 246 | 3.2 | 16.1 | 0.00 | 0.00 | 0.00 | 87 | 1010.5 |
| 20260506124457 | 15 | 217 | 4.8 | 16.1 | 0.00 | 0.00 | 0.00 | 87 | 1010.6 |
| 20260506123956 | 15 | 223 | 3.2 | 17.7 | 0.00 | 0.00 | 0.00 | 87 | 1010.6 |
| 20260506123457 | 15 | 246 | 6.4 | 14.5 | 0.00 | 0.00 | 0.00 | 87 | 1010.7 |
| 20260506122957 | 15 | 254 | 4.8 | 16.1 | 0.00 | 0.00 | 0.00 | 87 | 1010.9 |
| 20260506122000 | 15 | 234 | 8.0 | 16.1 | 0.00 | 0.00 | 0.00 | 88 | 1011.1 |
| 20260506121458 | 15 | 229 | 8.0 | 16.1 | 0.00 | 0.00 | 0.00 | 88 | 1011.0 |
| 20260506120956 | 15 | 236 | 6.4 | 16.1 | 0.00 | 0.00 | 0.00 | 88 | 1010.9 |
| 20260506120457 | 14 | 229 | 4.8 | 14.5 | 0.00 | 0.00 | 0.00 | 89 | 1010.8 |
| 20260506115959 | 14 | 235 | 4.8 | 14.5 | 0.00 | 0.00 | 0.00 | 89 | 1010.8 |
| 20260506115457 | 14 | 215 | 1.6 | 11.3 | 0.00 | 0.00 | 0.00 | 90 | 1010.8 |
| 20260506114957 | 14 | 263 | 6.4 | 11.3 | 0.00 | 0.00 | 0.00 | 91 | 1010.8 |
| 20260506114457 | 13 | 236 | 1.6 | 11.3 | 0.00 | 0.00 | 0.00 | 91 | 1010.8 |
| 20260506113957 | 13 | 248 | 6.4 | 12.9 | 0.00 | 0.00 | 0.00 | 91 | 1010.7 |
| 20260506113457 | 13 | 231 | 1.6 | 12.9 | 0.00 | 0.00 | 0.00 | 92 | 1010.7 |
| 20260506112957 | 13 | 232 | 4.8 | 11.3 | 0.00 | 0.00 | 0.00 | 92 | 1010.8 |
| 20260506111458 | 12 | 225 | 4.8 | 8.0 | 0.00 | 0.00 | 0.00 | 92 | 1010.8 |
| 20260506110957 | 12 | 228 | 6.4 | 8.0 | 0.00 | 0.00 | 0.00 | 92 | 1010.9 |
| 20260506110457 | 12 | 247 | 3.2 | 11.3 | 0.00 | 0.00 | 0.00 | 92 | 1011.0 |
| 20260506105959 | 12 | 227 | 3.2 | 12.9 | 0.00 | 0.00 | 0.00 | 92 | 1011.0 |
| 20260506105457 | 12 | 263 | 11.3 | 12.9 | 0.00 | 0.00 | 0.00 | 93 | 1011.0 |
| 20260506104958 | 12 | 234 | 3.2 | 11.3 | 0.00 | 0.00 | 0.00 | 93 | 1010.9 |
| 20260506104456 | 12 | 232 | 4.8 | 8.0 | 0.00 | 0.00 | 0.00 | 93 | 1010.8 |
| 20260506103958 | 12 | 221 | 6.4 | 6.4 | 0.00 | 0.00 | 0.00 | 93 | 1010.6 |
| 20260506103501 | 12 | 231 | 0.0 | 6.4 | 0.00 | 0.00 | 0.00 | 93 | 1010.7 |
| 20260506102957 | 12 | 225 | 4.8 | 6.4 | 0.00 | 0.00 | 0.00 | 93 | 1010.9 |
| 20260506100957 | 12 | 224 | 1.6 | 4.8 | 0.00 | 0.00 | 0.00 | 92 | 1010.9 |
| 20260506095956 | 12 | 230 | 3.2 | 6.4 | 0.00 | 0.00 | 0.00 | 92 | 1010.7 |
| 20260506095456 | 12 | 220 | 4.8 | 6.4 | 0.00 | 0.00 | 0.00 | 92 | 1010.8 |
| 20260506094957 | 12 | 203 | 4.8 | 6.4 | 0.00 | 0.00 | 0.00 | 92 | 1010.8 |
| 20260506094456 | 12 | 183 | 3.2 | 6.4 | 0.00 | 0.00 | 0.00 | 92 | 1010.6 |
| 20260506093957 | 12 | 232 | 4.8 | 6.4 | 0.00 | 0.00 | 0.00 | 92 | 1010.6 |
| 20260506093456 | 12 | 217 | 1.6 | 6.4 | 0.00 | 0.00 | 0.00 | 92 | 1010.6 |
| 20260506092957 | 12 | 200 | 3.2 | 6.4 | 0.00 | 0.00 | 0.00 | 92 | 1010.6 |
| 20260506092457 | 12 | 229 | 1.6 | 6.4 | 0.00 | 0.00 | 0.00 | 92 | 1010.6 |
| 20260506091456 | 12 | 221 | 3.2 | 6.4 | 0.00 | 0.00 | 0.00 | 92 | 1010.8 |
| 20260506090957 | 12 | 229 | 1.6 | 6.4 | 0.00 | 0.00 | 0.00 | 92 | 1010.8 |
| 20260506090456 | 12 | 221 | 6.4 | 6.4 | 0.00 | 0.00 | 0.00 | 92 | 1010.8 |
| 20260506085959 | 12 | 233 | 1.6 | 6.4 | 0.00 | 0.00 | 0.00 | 92 | 1010.7 |
| 20260506085457 | 12 | 224 | 4.8 | 6.4 | 0.00 | 0.00 | 0.00 | 91 | 1010.8 |
| 20260506084957 | 12 | 241 | 4.8 | 8.0 | 0.00 | 0.00 | 0.00 | 91 | 1010.8 |
| 20260506084457 | 12 | 232 | 6.4 | 11.3 | 0.00 | 0.00 | 0.00 | 91 | 1010.9 |
| 20260506083957 | 12 | 215 | 1.6 | 14.5 | 0.00 | 0.00 | 0.00 | 91 | 1010.9 |
| 20260506082457 | 12 | 201 | 3.2 | 12.9 | 0.00 | 0.00 | 0.00 | 91 | 1011.0 |
| 20260506081957 | 12 | 238 | 4.8 | 12.9 | 0.00 | 0.00 | 0.00 | 91 | 1011.0 |
| 20260506081456 | 12 | 225 | 4.8 | 8.0 | 0.00 | 0.00 | 0.00 | 91 | 1010.9 |
| 20260506080958 | 12 | 235 | 3.2 | 8.0 | 0.00 | 0.00 | 0.00 | 91 | 1010.9 |
| 20260506080456 | 12 | 226 | 0.0 | 6.4 | 0.00 | 0.00 | 0.00 | 91 | 1010.8 |
| 20260506073455 | 12 | 263 | 9.7 | 9.7 | 0.00 | 0.00 | 0.00 | 90 | 1011.1 |
| 20260506072456 | 12 | 235 | 3.2 | 8.0 | 0.00 | 0.00 | 0.00 | 90 | 1011.1 |
| 20260506071956 | 12 | 251 | 6.4 | 8.0 | 0.00 | 0.00 | 0.00 | 90 | 1011.2 |
| 20260506070955 | 12 | 232 | 4.8 | 8.0 | 0.00 | 0.00 | 0.00 | 89 | 1011.2 |
| 20260506062456 | 13 | 223 | 3.2 | 8.0 | 0.00 | 0.00 | 0.00 | 87 | 1011.0 |
| 20260506061957 | 13 | 246 | 8.0 | 8.0 | 0.00 | 0.00 | 0.00 | 87 | 1011.0 |
| 20260506061456 | 13 | 239 | 4.8 | 12.9 | 0.00 | 0.00 | 0.00 | 87 | 1011.0 |
| 20260506060456 | 13 | 236 | 1.6 | 12.9 | 0.00 | 0.00 | 0.00 | 86 | 1011.1 |
| 20260506050956 | 14 | 233 | 6.4 | 9.7 | 0.00 | 0.00 | 0.00 | 84 | 1011.4 |
| 20260506050456 | 14 | 240 | 6.4 | 9.7 | 0.00 | 0.00 | 0.00 | 83 | 1011.5 |
| 20260506044458 | 15 | 239 | 6.4 | 8.0 | 0.00 | 0.00 | 0.00 | 83 | 1011.5 |
| 20260506043959 | 15 | 226 | 6.4 | 11.3 | 0.00 | 0.00 | 0.00 | 83 | 1011.6 |
| 20260506042959 | 15 | 231 | 6.4 | 12.9 | 0.00 | 0.00 | 0.00 | 82 | 1011.5 |
| 20260506042458 | 15 | 232 | 1.6 | 14.5 | 0.00 | 0.00 | 0.00 | 82 | 1011.6 |
| 20260506041959 | 15 | 256 | 11.3 | 14.5 | 0.00 | 0.00 | 0.00 | 82 | 1011.5 |
| 20260506041459 | 15 | 233 | 6.4 | 12.9 | 0.00 | 0.00 | 0.00 | 81 | 1011.5 |
| 20260506040958 | 15 | 236 | 6.4 | 14.5 | 0.00 | 0.00 | 0.00 | 81 | 1011.6 |
| 20260506040458 | 15 | 238 | 6.4 | 14.5 | 0.00 | 0.00 | 0.00 | 81 | 1011.6 |
| 20260506040004 | 15 | 227 | 3.2 | 12.9 | 0.00 | 0.00 | 0.00 | 80 | 1011.6 |
| 20260506035458 | 15 | 256 | 8.0 | 12.9 | 0.00 | 0.00 | 0.00 | 80 | 1011.6 |
| 20260506034959 | 15 | 240 | 6.4 | 14.5 | 0.00 | 0.00 | 0.00 | 79 | 1011.5 |
| 20260506034459 | 15 | 237 | 9.7 | 14.5 | 0.00 | 0.00 | 0.00 | 79 | 1011.5 |
| 20260506033958 | 15 | 258 | 12.9 | 14.5 | 0.00 | 0.00 | 0.00 | 79 | 1011.5 |
| 20260506033459 | 15 | 250 | 11.3 | 14.5 | 0.00 | 0.00 | 0.00 | 78 | 1011.5 |
| 20260506032959 | 15 | 232 | 9.7 | 14.5 | 0.00 | 0.00 | 0.00 | 78 | 1011.5 |
| 20260506032459 | 15 | 236 | 8.0 | 20.9 | 0.00 | 0.00 | 0.00 | 78 | 1011.5 |
| 20260506031958 | 15 | 229 | 9.7 | 20.9 | 0.00 | 0.00 | 0.00 | 78 | 1011.4 |
| 20260506031459 | 15 | 217 | 9.7 | 19.3 | 0.00 | 0.00 | 0.00 | 77 | 1011.5 |
| 20260506030958 | 15 | 255 | 12.9 | 19.3 | 0.00 | 0.00 | 0.00 | 77 | 1011.5 |
| 20260506030459 | 15 | 226 | 6.4 | 14.5 | 0.00 | 0.00 | 0.00 | 77 | 1011.5 |
| 20260506030000 | 15 | 242 | 12.9 | 20.9 | 0.00 | 0.00 | 0.00 | 77 | 1011.6 |
| 20260506025458 | 15 | 222 | 11.3 | 22.5 | 0.00 | 0.00 | 0.00 | 77 | 1011.5 |
| 20260506024958 | 15 | 230 | 8.0 | 22.5 | 0.00 | 0.00 | 0.00 | 77 | 1011.6 |
| 20260506023958 | 15 | 223 | 6.4 | 20.9 | 0.00 | 0.00 | 0.00 | 76 | 1011.6 |
| 20260506023459 | 15 | 215 | 11.3 | 17.7 | 0.00 | 0.00 | 0.00 | 76 | 1011.5 |
| 20260506022959 | 15 | 233 | 9.7 | 17.7 | 0.00 | 0.00 | 0.00 | 76 | 1011.5 |
| 20260506022459 | 15 | 197 | 8.0 | 16.1 | 0.00 | 0.00 | 0.00 | 76 | 1011.5 |
| 20260506021959 | 15 | 225 | 8.0 | 17.7 | 0.00 | 0.00 | 0.00 | 76 | 1011.4 |
| 20260506021500 | 15 | 239 | 8.0 | 17.7 | 0.00 | 0.00 | 0.00 | 76 | 1011.5 |
| 20260506020958 | 15 | 226 | 6.4 | 11.3 | 0.00 | 0.00 | 0.00 | 76 | 1011.5 |
| 20260506020458 | 15 | 230 | 8.0 | 12.9 | 0.00 | 0.00 | 0.00 | 75 | 1011.4 |
| 20260506015959 | 15 | 224 | 8.0 | 14.5 | 0.00 | 0.00 | 0.00 | 75 | 1011.3 |
| 20260506015457 | 15 | 251 | 6.4 | 14.5 | 0.00 | 0.00 | 0.00 | 75 | 1011.3 |
| 20260506014957 | 15 | 220 | 4.8 | 14.5 | 0.00 | 0.00 | 0.00 | 75 | 1011.3 |
| 20260506014457 | 15 | 229 | 8.0 | 14.5 | 0.00 | 0.00 | 0.00 | 75 | 1011.2 |
| 20260506013958 | 15 | 217 | 9.7 | 12.9 | 0.00 | 0.00 | 0.00 | 75 | 1011.2 |
| 20260506012957 | 15 | 220 | 4.8 | 14.5 | 0.00 | 0.00 | 0.00 | 74 | 1011.1 |
| 20260506011958 | 16 | 234 | 3.2 | 12.9 | 0.00 | 0.00 | 0.00 | 74 | 1010.9 |
| 20260506011457 | 16 | 238 | 4.8 | 19.3 | 0.00 | 0.00 | 0.00 | 74 | 1010.9 |
| 20260506010958 | 16 | 236 | 9.7 | 19.3 | 0.00 | 0.00 | 0.00 | 74 | 1010.7 |
| 20260506010457 | 15 | 221 | 6.4 | 12.9 | 0.00 | 0.00 | 0.00 | 74 | 1010.7 |
| 20260506005458 | 16 | 225 | 4.8 | 14.5 | 0.00 | 0.00 | 0.00 | 73 | 1010.6 |
| 20260506004958 | 16 | 218 | 1.6 | 14.5 | 0.00 | 0.00 | 0.00 | 73 | 1010.5 |
| 20260506004459 | 16 | 251 | 8.0 | 16.1 | 0.00 | 0.00 | 0.00 | 72 | 1010.4 |
| 20260506003459 | 16 | 230 | 8.0 | 17.7 | 0.00 | 0.00 | 0.00 | 72 | 1010.3 |
| 20260506002958 | 16 | 229 | 8.0 | 19.3 | 0.00 | 0.00 | 0.00 | 71 | 1010.2 |
| 20260506002459 | 16 | 242 | 9.7 | 12.9 | 0.00 | 0.00 | 0.00 | 71 | 1010.2 |
| 20260506001959 | 16 | 242 | 14.5 | 14.5 | 0.00 | 0.00 | 0.00 | 71 | 1010.2 |
| 20260506001458 | 16 | 222 | 4.8 | 14.5 | 0.00 | 0.00 | 0.00 | 70 | 1010.2 |
| 20260506000959 | 16 | 236 | 11.3 | 14.5 | 0.00 | 0.00 | 0.00 | 70 | 1010.1 |
| 20260506000458 | 16 | 226 | 11.3 | 16.1 | 0.00 | 0.00 | 0.00 | 70 | 1010.1 |
| 20260505235458 | 16 | 229 | 9.7 | 17.7 | 0.00 | 0.00 | 0.00 | 69 | 1009.9 |
| 20260505235001 | 17 | 226 | 4.8 | 19.3 | 0.00 | 0.00 | 0.00 | 69 | 1009.8 |
| 20260505234457 | 17 | 250 | 16.1 | 19.3 | 0.00 | 0.00 | 0.00 | 68 | 1009.8 |
| 20260505233958 | 17 | 222 | 6.4 | 19.3 | 0.00 | 0.00 | 0.00 | 69 | 1009.8 |
| 20260505233458 | 17 | 231 | 8.0 | 17.7 | 0.00 | 0.00 | 0.00 | 69 | 1009.8 |
| 20260505232958 | 17 | 239 | 9.7 | 16.1 | 0.00 | 0.00 | 0.00 | 68 | 1009.7 |
| 20260505232459 | 17 | 229 | 4.8 | 12.9 | 0.00 | 0.00 | 0.00 | 68 | 1009.7 |
| 20260505231957 | 17 | 221 | 6.4 | 19.3 | 0.00 | 0.00 | 0.00 | 68 | 1009.5 |
| 20260505230957 | 17 | 235 | 4.8 | 19.3 | 0.00 | 0.00 | 0.00 | 68 | 1009.4 |
| 20260505230500 | 18 | 234 | 6.4 | 19.3 | 0.00 | 0.00 | 0.00 | 67 | 1009.4 |
| 20260505225957 | 18 | 226 | 3.2 | 20.9 | 0.00 | 0.00 | 0.00 | 67 | 1009.2 |
| 20260505224958 | 18 | 251 | 8.0 | 19.3 | 0.00 | 0.00 | 0.00 | 67 | 1009.3 |
| 20260505223957 | 18 | 242 | 9.7 | 22.5 | 0.00 | 0.00 | 0.00 | 67 | 1009.3 |
| 20260505222958 | 18 | 233 | 6.4 | 19.3 | 0.00 | 0.00 | 0.00 | 67 | 1009.3 |
| 20260505222457 | 18 | 242 | 3.2 | 19.3 | 0.00 | 0.00 | 0.00 | 67 | 1009.4 |
| 20260505221958 | 18 | 234 | 8.0 | 16.1 | 0.00 | 0.00 | 0.00 | 66 | 1009.4 |
| 20260505221457 | 18 | 238 | 6.4 | 19.3 | 0.00 | 0.00 | 0.00 | 66 | 1009.4 |
| 20260505221001 | 18 | 238 | 8.0 | 19.3 | 0.00 | 0.00 | 0.00 | 66 | 1009.4 |
| 20260505220458 | 18 | 233 | 3.2 | 19.3 | 0.00 | 0.00 | 0.00 | 66 | 1009.4 |
| 20260505215957 | 18 | 256 | 3.2 | 12.9 | 0.00 | 0.00 | 0.00 | 67 | 1009.4 |
| 20260505215457 | 19 | 245 | 4.8 | 17.7 | 0.00 | 0.00 | 0.00 | 67 | 1009.3 |
| 20260505214957 | 19 | 240 | 4.8 | 17.7 | 0.00 | 0.00 | 0.00 | 65 | 1009.2 |
| 20260505214458 | 19 | 224 | 4.8 | 12.9 | 0.00 | 0.00 | 0.00 | 66 | 1009.2 |
| 20260505213457 | 19 | 190 | 1.6 | 12.9 | 0.00 | 0.00 | 0.00 | 64 | 1009.2 |
| 20260505212958 | 20 | 259 | 6.4 | 12.9 | 0.00 | 0.00 | 0.00 | 64 | 1009.1 |
| 20260505212458 | 20 | 161 | 3.2 | 11.3 | 0.00 | 0.00 | 0.00 | 63 | 1009.1 |
| 20260505211957 | 20 | 234 | 4.8 | 11.3 | 0.00 | 0.00 | 0.00 | 65 | 1009.0 |
| 20260505211458 | 20 | 200 | 3.2 | 11.3 | 0.00 | 0.00 | 0.00 | 63 | 1008.9 |
| 20260505210957 | 20 | 192 | 3.2 | 11.3 | 0.00 | 0.00 | 0.00 | 62 | 1008.9 |
| 20260505210457 | 20 | 233 | 0.0 | 11.3 | 0.00 | 0.00 | 0.00 | 64 | 1009.0 |
| 20260505205457 | 20 | 196 | 3.2 | 8.0 | 0.00 | 0.00 | 0.00 | 63 | 1009.1 |
| 20260505204957 | 20 | 238 | 1.6 | 6.4 | 0.00 | 0.00 | 0.00 | 63 | 1009.1 |
| 20260505204458 | 21 | 216 | 3.2 | 11.3 | 0.00 | 0.00 | 0.00 | 62 | 1008.9 |
| 20260505203958 | 21 | 216 | 3.2 | 12.9 | 0.00 | 0.00 | 0.00 | 62 | 1008.9 |
| 20260505203457 | 21 | 228 | 3.2 | 12.9 | 0.00 | 0.00 | 0.00 | 62 | 1009.0 |
| 20260505202957 | 21 | 220 | 3.2 | 11.3 | 0.00 | 0.00 | 0.00 | 62 | 1009.0 |